| time (UTC) | temp F | wind direction | speed MPH | gust MPH | rain 1hr in | rain 24hr in | rain mn in | humidity % | barometer mb |
| 20260504081515 | 67 | 48 | 5.0 | 10.0 | 0.00 | 0.00 | 0.00 | 80 | 1015.7 |
| 20260504044553 | 71 | 69 | 7.0 | 12.0 | 0.00 | 0.00 | 0.00 | 75 | 1016.9 |
| 20260504043056 | 71 | 62 | 5.0 | 15.0 | 0.00 | 0.00 | 0.00 | 75 | 1016.6 |
| 20260504041547 | 72 | 76 | 7.0 | 10.0 | 0.00 | 0.00 | 0.00 | 75 | 1017.1 |
| 20260504040046 | 71 | 64 | 5.0 | 7.0 | 0.00 | 0.00 | 0.00 | 74 | 1017.2 |
| 20260504034550 | 71 | 67 | 3.0 | 10.0 | 0.00 | 0.00 | 0.00 | 72 | 1017.2 |
| 20260504033043 | 72 | 55 | 4.0 | 7.0 | 0.00 | 0.00 | 0.00 | 71 | 1017.3 |
| 20260504031544 | 72 | 44 | 3.0 | 8.0 | 0.00 | 0.00 | 0.00 | 70 | 1017.3 |
| 20260504030042 | 72 | 34 | 5.0 | 12.0 | 0.00 | 0.00 | 0.00 | 69 | 1017.1 |
| 20260504024547 | 72 | 355 | 6.0 | 11.0 | 0.00 | 0.00 | 0.00 | 69 | 1017.0 |
| 20260504023041 | 72 | 343 | 4.0 | 12.0 | 0.00 | 0.00 | 0.00 | 69 | 1016.9 |
| 20260504021541 | 72 | 13 | 7.0 | 12.0 | 0.00 | 0.00 | 0.00 | 69 | 1016.7 |
| 20260504020042 | 72 | 55 | 5.0 | 11.0 | 0.00 | 0.00 | 0.00 | 70 | 1016.5 |
| 20260504014541 | 72 | 31 | 6.0 | 10.0 | 0.00 | 0.00 | 0.00 | 70 | 1016.5 |
| 20260504013054 | 73 | 9 | 9.0 | 13.0 | 0.00 | 0.00 | 0.00 | 69 | 1016.0 |
| 20260504011539 | 73 | 54 | 6.0 | 13.0 | 0.00 | 0.00 | 0.00 | 69 | 1016.0 |
| 20260504010041 | 73 | 40 | 7.0 | 14.0 | 0.00 | 0.00 | 0.00 | 69 | 1015.7 |
| 20260504004537 | 73 | 28 | 4.0 | 11.0 | 0.00 | 0.00 | 0.00 | 69 | 1015.6 |
| 20260504003037 | 73 | 351 | 9.0 | 15.0 | 0.00 | 0.00 | 0.00 | 72 | 1015.4 |
| 20260504001540 | 74 | 337 | 11.0 | 15.0 | 0.00 | 0.00 | 0.00 | 72 | 1015.3 |
| 20260504000036 | 74 | 345 | 8.0 | 15.0 | 0.00 | 0.00 | 0.00 | 71 | 1015.1 |
| 20260503234536 | 74 | 343 | 11.0 | 16.0 | 0.00 | 0.00 | 0.00 | 70 | 1015.2 |
| 20260503233035 | 74 | 355 | 8.0 | 15.0 | 0.00 | 0.00 | 0.00 | 71 | 1015.2 |
| 20260503231535 | 74 | 341 | 7.0 | 16.0 | 0.00 | 0.00 | 0.00 | 71 | 1015.2 |
| 20260503230039 | 74 | 360 | 9.0 | 15.0 | 0.00 | 0.00 | 0.00 | 70 | 1015.1 |
| 20260503224534 | 74 | 284 | 9.0 | 15.0 | 0.00 | 0.01 | 0.00 | 69 | 1015.2 |
| 20260503223034 | 75 | 290 | 7.0 | 17.0 | 0.00 | 0.01 | 0.00 | 70 | 1015.2 |
| 20260503221533 | 75 | 360 | 8.0 | 17.0 | 0.00 | 0.01 | 0.00 | 69 | 1015.2 |
| 20260503220032 | 75 | 346 | 11.0 | 17.0 | 0.00 | 0.01 | 0.00 | 68 | 1015.2 |
| 20260503214538 | 75 | 360 | 7.0 | 17.0 | 0.00 | 0.06 | 0.00 | 68 | 1015.2 |
| 20260503213030 | 76 | 332 | 10.0 | 16.0 | 0.00 | 0.06 | 0.00 | 66 | 1015.2 |
| 20260503211530 | 76 | 292 | 6.0 | 13.0 | 0.00 | 0.06 | 0.00 | 66 | 1015.4 |
| 20260503210029 | 76 | 338 | 5.0 | 14.0 | 0.00 | 0.06 | 0.00 | 67 | 1015.3 |
| 20260503204530 | 75 | 335 | 9.0 | 15.0 | 0.00 | 0.09 | 0.00 | 66 | 1015.4 |
| 20260503203035 | 76 | 342 | 7.0 | 16.0 | 0.00 | 0.09 | 0.00 | 66 | 1015.5 |
| 20260503201529 | 76 | 288 | 5.0 | 12.0 | 0.00 | 0.09 | 0.00 | 65 | 1015.6 |
| 20260503200029 | 76 | 309 | 9.0 | 14.0 | 0.00 | 0.09 | 0.00 | 65 | 1016.0 |
| 20260503194527 | 76 | 311 | 8.0 | 16.0 | 0.00 | 0.20 | 0.00 | 65 | 1016.1 |
| 20260503193041 | 77 | 18 | 8.0 | 17.0 | 0.00 | 0.20 | 0.00 | 60 | 1016.2 |
| 20260503191557 | 76 | 78 | 6.0 | 11.0 | 0.00 | 0.20 | 0.00 | 60 | 1016.3 |
| 20260503190031 | 76 | 75 | 2.0 | 11.0 | 0.00 | 0.20 | 0.00 | 60 | 1016.9 |
| 20260503184523 | 76 | 74 | 6.0 | 10.0 | 0.00 | 0.52 | 0.00 | 61 | 1017.0 |
| 20260503183021 | 76 | 73 | 4.0 | 11.0 | 0.00 | 0.52 | 0.00 | 60 | 1017.2 |
| 20260503181521 | 75 | 29 | 10.0 | 14.0 | 0.00 | 0.52 | 0.00 | 62 | 1017.2 |
| 20260503180025 | 76 | 121 | 2.0 | 10.0 | 0.00 | 0.52 | 0.00 | 62 | 1017.4 |
| 20260503174517 | 74 | 71 | 8.0 | 14.0 | 0.00 | 0.52 | 0.00 | 64 | 1017.5 |
| 20260503173015 | 74 | 75 | 4.0 | 12.0 | 0.00 | 0.52 | 0.00 | 64 | 1017.7 |
| 20260503171512 | 73 | 75 | 4.0 | 12.0 | 0.00 | 0.52 | 0.00 | 64 | 1017.8 |